Regional Weather Roundup
Issued by NWS Memphis, TN

Home | Current Version | Previous Version | Text Only | Print | Product List | Glossary On
Versions: 1 2 3 4 5 6 7 8 9 10 11 12 13 14 15 16 17 18 19 20 21 22 23 24 25 26 27 28 29 30 31 32 33 34 35 36 37 38 39 40 41 42 43 44 45 46 47 48 49 50
000
ASUS44 KMEG 222010
RWRMEG
MEMPHIS CWA HOURLY WEATHER ROUNDUP
NATIONAL WEATHER SERVICE MEMPHIS TN
300 PM CDT SAT JUL 22 2017

...WEST TENNESSEE...

CITY           SKY/WX    TMP DP  RH WIND       PRES   REMARKS
MEMPHIS INTL   MOSUNNY   98  72  42 SW9       29.92F HX 107
JACKSON        MOSUNNY   98  72  42 W7        29.93F HX 107
COVINGTON      MOSUNNY   95  73  49 S6G12     29.92F HX 105
SOMERVILLE       N/A     95  70  43 SW3G12    29.92F HX 101
BOLIVAR        MOSUNNY   97  70  41 SW8       29.92F HX 103
LEXINGTON      SUNNY     95  73  49 SW9       29.93F HX 105
SELMER         SUNNY     95  72  46 VRB3      29.93F HX 103
SAVANNAH       SUNNY     97  73  46 W6        29.92F HX 107
UNION CITY     SUNNY     93  77  59 SW9       29.89F HX 107
PARIS          SUNNY     91  77  62 SW7       29.91F HX 105
HUNTINGDON     SUNNY     93  77  59 SW7       29.91F HX 107


...EASTERN ARKANSAS...

CITY           SKY/WX    TMP DP  RH WIND       PRES   REMARKS
JONESBORO      MOSUNNY   95  77  55 SW9       29.91F HX 109
WEST MEMPHIS   SUNNY     94  76  55 S7        29.91F HX 106
BATESVILLE     SUNNY     97  72  44 SW8       29.91F HX 105
WALNUT RIDGE   MOSUNNY   97  73  46 CALM      29.90F HX 107
BLYTHEVILLE    SUNNY     95  77  55 SW9       29.92F HX 109
SEARCY         MOSUNNY   96  78  56 SW5       29.93  HX 112
STUTTGART      MOSUNNY   97  66  36 S8        29.93F HX 100
PINE BLUFF     MOSUNNY   94  74  52 SW5       29.92F HX 104
MONTICELLO     MOSUNNY   94  74  52 NW6       29.92F HX 104


...NORTH MISSISSIPPI...

CITY           SKY/WX    TMP DP  RH WIND       PRES   REMARKS
TUPELO         MOSUNNY   96  72  45 SE8       29.93F HX 104
OXFORD         PTSUNNY   86  72  62 NW9       29.96F HX  92
BATESVILLE     MOSUNNY   93  73  52 W7        29.93F HX 102
OLIVE BRANCH   MOSUNNY  N/A N/A N/A SW6       29.92F
TUNICA           N/A     93  73  52 SW6       29.93F HX 102
CLARKSDALE       N/A     95  77  55 S5G12     29.93F HX 109
CORINTH        MOSUNNY   91  75  59 S8G15     29.93F HX 102
GREENWOOD      CLOUDY    90  78  68 VRB5      29.93F HX 104
STARKVILLE     MOSUNNY   93  72  49 S6        29.95F HX 100
GOLDEN TRIANGL MOSUNNY   93  72  49 CALM      29.89F HX 100


...SOUTHEAST MISSOURI...

CITY           SKY/WX    TMP DP  RH WIND       PRES   REMARKS
KENNETT        MOSUNNY   95  77  55 SW8       29.89F HX 109
MALDEN         SUNNY     97  72  44 S15       29.89F HX 105
WEST PLAINS    SUNNY     95  70  44 S9        29.92F HX 101
POPLAR BLUFF   SUNNY     94  77  57 S14G22    29.86F HX 108
CAPE GIRARDEAU SUNNY     93  74  53 SW15      29.86F HX 103


...NORTHWEST ALABAMA...

CITY           SKY/WX    TMP DP  RH WIND       PRES   REMARKS
MUSCLE SHOALS  CLOUDY    88  73  61 S8        29.96F HX  95


...MIDDLE TENNESSEE...

CITY           SKY/WX    TMP DP  RH WIND       PRES   REMARKS
NASHVILLE      MOSUNNY   97  72  44 VRB6      29.93F HX 105
CLARKSVILLE    MOSUNNY   93  73  52 S13       29.90F HX 102
COLUMBIA       SUNNY     95  72  46 CALM      29.93F HX 103


...WESTERN KENTUCKY...

CITY           SKY/WX    TMP DP  RH WIND       PRES   REMARKS
PADUCAH        SUNNY     95  75  52 SW13G22   29.87F HX 107
FORT CAMPBELL  SUNNY     94  74  53 S16       29.89F HX 104


...CENTRAL ARKANSAS...

CITY           SKY/WX    TMP DP  RH WIND       PRES   REMARKS
LITTLE ROCK    MOSUNNY   95  75  52 W8        29.91F HX 107


SKY/WX REPORTED AS FAIR MEANS FEW OR NO CLOUDS BELOW
12 THOUSAND FEET.




USA.gov is the U.S. government's official web portal to all federal, state and local government web resources and services.